This demonstration page uses our WeatherBlox Daily Observations layout. Learn more.

40.92945, -100.16068

Hourly Observations for April 24, 2017

Temp ( °F °C ) Dew Point ( °F °C ) Humidity (%) Winds ( mph kmh ) Pressure ( in mb ) Visibility ( mi km ) Precip ( " mm )
12:15 am 00:15 Clear 54 12.4 35 1.4 47 47 SSE 16 26 29.71 1006 10 16.0934 0 0
12:35 am 00:35 Clear 54 12.2 35 1.5 48 48 SSE 17 28 29.71 1006 10 16.0934 0 0
12:55 am 00:55 Clear 54 12.1 35 1.5 49 49 S 21 33 29.71 1006 10 16.0934 0 0
1:15 am 01:15 Clear 54 12.1 35 1.5 49 49 S 21 33 29.68 1005 10 16.0934 0 0
1:35 am 01:35 Clear 54 12.1 35 1.4 48 48 S 21 33 29.68 1005 10 16.0934 0 0
1:55 am 01:55 Clear 54 12 34 1.2 48 48 S 21 33 29.68 1005 10 16.0934 0 0
2:15 am 02:15 Clear 53 11.8 34 1 48 48 SSE 23 37 29.68 1005 10 16.0934 0 0
2:35 am 02:35 Clear 53 11.7 34 1 48 48 SSE 24 39 29.65 1004 10 16.0934 0 0
2:55 am 02:55 Clear 53 11.5 34 1 49 49 SSE 23 37 29.65 1004 10 16.0934 0 0
3:15 am 03:15 Clear 53 11.5 34 1.1 49 49 SSE 23 37 29.62 1003 10 16.0934 0 0
3:35 am 03:35 Clear 52 11.3 34 1.3 51 51 SSE 22 35 29.62 1003 10 16.0934 0 0
3:55 am 03:55 Clear 53 11.5 34 1.3 50 50 SSE 18 30 29.62 1003 10 16.0934 0 0
4:15 am 04:15 Clear 53 11.5 35 1.5 51 51 S 20 31 29.62 1003 10 16.0934 0 0
4:35 am 04:35 Clear 52 11.3 35 1.5 51 51 S 22 35 29.62 1003 10 16.0934 0 0
4:55 am 04:55 Clear 52 11.2 35 1.5 52 52 S 21 33 29.59 1002 10 16.0934 0 0
5:15 am 05:15 Clear 52 11 34 1.3 52 52 S 24 39 29.59 1002 10 16.0934 0 0
5:35 am 05:35 Clear 51 10.7 34 1.3 53 53 SE 10 17 29.59 1002 10 16.0934 0 0
5:55 am 05:55 Clear 51 10.6 34 1.3 53 53 SSE 18 30 29.56 1001 10 16.0934 0 0
6:15 am 06:15 Clear 50 10.2 34 1.3 54 54 SSE 17 28 29.56 1001 10 16.0934 0 0
6:35 am 06:35 Clear 50 10.1 34 1.3 55 55 SSE 15 24 29.56 1001 10 16.0934 0 0
6:55 am 06:55 Sunny 50 10 34 1.3 55 55 SSE 14 22 29.56 1001 10 16.0934 0 0
7:15 am 07:15 Sunny 50 9.8 35 1.5 57 57 SSE 10 17 29.56 1001 10 16.0934 0 0
7:35 am 07:35 Sunny 51 10.4 35 1.7 55 55 S 12 19 29.59 1002 10 16.0934 0 0
7:55 am 07:55 Sunny 51 10.6 36 2 56 56 S 14 22 29.56 1001 10 16.0934 0 0
8:15 am 08:15 Sunny 52 11.3 36 2.3 54 54 S 13 20 29.56 1001 10 16.0934 0 0
8:35 am 08:35 Sunny 53 11.7 36 2.4 53 53 S 17 28 29.56 1001 10 16.0934 0 0
8:55 am 08:55 Sunny 54 12.2 37 2.5 52 52 S 15 24 29.56 1001 10 16.0934 0 0
9:15 am 09:15 Sunny 55 12.9 37 2.8 51 51 S 14 22 29.53 1000 10 16.0934 0 0
9:35 am 09:35 Sunny 56 13.2 37 2.7 49 49 SSW 15 24 29.53 1000 10 16.0934 0 0
9:55 am 09:55 Sunny 57 13.9 38 3.1 48 48 SSW 9 15 29.53 1000 10 16.0934 0 0
10:15 am 10:15 Sunny 56 13.4 38 3.3 51 51 SSW 10 17 29.53 1000 10 16.0934 0 0
10:35 am 10:35 Sunny 58 14.6 38 3.5 48 48 SW 10 17 29.53 1000 10 16.0934 0 0
10:55 am 10:55 Sunny 58 14.3 38 3.4 48 48 WSW 7 11 29.53 1000 10 16.0934 0 0
11:15 am 11:15 Partly Cloudy 58 14.3 38 3.3 48 48 ENE 5 7 29.47 998 10 16.0934 0 0
11:35 am 11:35 Partly Cloudy 61 16 40 4.2 46 46 WNW 5 7 29.47 998 10 16.0934 0 0
11:55 am 11:55 Sunny 62 16.4 39 3.8 43 43 W 8 13 29.5 999 10 16.0934 0 0
12:15 pm 12:15 Partly Cloudy 59 15.1 39 4 48 48 NNW 9 15 29.5 999 10 16.0934 0 0
12:35 pm 12:35 Partly Cloudy 61 15.9 40 4.6 47 47 NNW 7 11 29.47 998 10 16.0934 0 0
12:55 pm 12:55 Sunny 62 16.7 39 3.9 43 43 NE 3 6 29.47 998 10 16.0934 0 0
1:15 pm 13:15 Sunny 64 18 40 4.2 40 40 NNE 3 6 29.5 999 10 16.0934 0 0
1:35 pm 13:35 Sunny 65 18.6 39 4 38 38 SSE 3 6 29.47 998 10 16.0934 0 0
1:55 pm 13:55 Sunny 67 19.4 40 4.4 37 37 SSE 3 6 29.44 997 10 16.0934 0 0
2:15 pm 14:15 Sunny 68 20.1 40 4.7 36 36 SSE 5 7 29.44 997 10 16.0934 0 0
2:35 pm 14:35 Sunny 70 21 40 4.7 35 35 E 3 6 29.44 997 10 16.0934 0 0
2:55 pm 14:55 Sunny 71 21.7 41 4.8 33 33 Calm 29.44 997 10 16.0934 0 0
3:15 pm 15:15 Sunny 71 21.9 42 5.7 35 35 NNW 16 26 29.44 997 10 16.0934 0 0
3:35 pm 15:35 Sunny 73 22.7 42 5.8 34 34 NNW 13 20 29.41 996 10 16.0934 0 0
3:55 pm 15:55 Sunny 73 22.5 42 5.6 33 33 NNW 13 20 29.41 996 10 16.0934 0 0
4:15 pm 16:15 Sunny 72 22.1 42 5.7 35 35 NNW 17 28 29.44 997 10 16.0934 0 0
4:35 pm 16:35 Sunny 71 21.6 43 6.1 37 37 NW 10 17 29.44 997 10 16.0934 0 0
4:55 pm 16:55 Sunny 71 21.4 43 6.2 37 37 NNW 15 24 29.44 997 10 16.0934 0 0
5:15 pm 17:15 Sunny 70 21 42 5.4 36 36 N 16 26 29.44 997 10 16.0934 0 0
5:35 pm 17:35 Sunny 69 20.8 42 5.8 38 38 N 13 20 29.44 997 10 16.0934 0 0
5:55 pm 17:55 Sunny 70 20.9 42 5.8 37 37 NNE 12 19 29.44 997 10 16.0934 0 0
6:15 pm 18:15 Sunny 69 20.6 42 5.7 38 38 N 8 13 29.44 997 10 16.0934 0 0
6:35 pm 18:35 Sunny 68 19.8 42 5.3 39 39 NE 13 20 29.44 997 10 16.0934 0 0
6:55 pm 18:55 Sunny 67 19.5 42 5.4 40 40 NNE 13 20 29.47 998 10 16.0934 0 0
7:15 pm 19:15 Sunny 66 18.9 41 5.2 41 41 NE 13 20 29.5 999 10 16.0934 0 0
7:35 pm 19:35 Sunny 65 18.2 42 5.3 43 43 NNE 13 20 29.5 999 10 16.0934 0 0
7:55 pm 19:55 Sunny 64 17.5 42 5.4 45 45 NNE 8 13 29.5 999 10 16.0934 0 0
8:15 pm 20:15 Sunny 61 16.1 41 5.2 49 49 NE 10 17 29.5 999 10 16.0934 0 0
8:35 pm 20:35 Clear 59 14.8 41 5.2 53 53 NE 10 17 29.53 1000 10 16.0934 0 0
8:55 pm 20:55 Clear 58 14.3 41 5 54 54 NNE 12 19 29.53 1000 10 16.0934 0 0
9:15 pm 21:15 Clear 58 14.2 41 5.1 55 55 NNE 14 22 29.53 1000 10 16.0934 0 0
9:35 pm 21:35 Clear 59 15 41 5.1 52 52 NNE 14 22 29.53 1000 10 16.0934 0 0
9:55 pm 21:55 Clear 58 14.7 41 5 52 52 NNE 14 22 29.53 1000 10 16.0934 0 0
10:15 pm 22:15 Partly Cloudy 58 14.4 41 5.1 54 54 NE 16 26 29.5 999 10 16.0934 0 0
10:35 pm 22:35 Partly Cloudy 57 14.1 41 5.2 55 55 NE 15 24 29.5 999 10 16.0934 0 0
10:55 pm 22:55 Partly Cloudy 57 14 41 5.1 55 55 NNE 13 20 29.53 1000 10 16.0934 0 0
11:15 pm 23:15 Partly Cloudy 56 13.5 40 4.7 56 56 NNE 13 20 29.5 999 10 16.0934 0 0
11:35 pm 23:35 Clear 56 13.3 40 4.7 56 56 NNE 6 9 29.53 1000 10 16.0934 0 0
11:55 pm 23:55 Clear 55 12.8 40 4.6 58 58 NE 7 11 29.53 1000 10 16.0934 0 0

Powered by AerisWeather